Pian Rosa, Italy

9:29 AM CEST on October 01, 2016 (GMT +0200)
Pian Rosa

Weather History for LIMH - March, 2014

Change the Weather History Date:

Friday, March 28, 2014

  Actual Average Record
Temperature  
Mean Temperature 16 °F -  
Max Temperature 21 °F 20 °F 35 °F (1998)
Min Temperature 11 °F 11 °F -2 °F (2008)
Degree Days  
Heating Degree Days 49    
Moisture  
Dew Point 4 °F    
Average Humidity 57    
Maximum Humidity 93    
Minimum Humidity 7    
Precipitation  
Precipitation 0.00 in - - ()
Sea Level Pressure  
Sea Level Pressure 29.93 in    
Wind  
Wind Speed 7 mph ()    
Max Wind Speed 18 mph    
Max Gust Speed -    
Visibility 5.4 miles    
Events Fog    
Averages and records for this station are not official NWS values.
T = Trace of Precipitation, MM = Missing Value Source: Averaged Metar Reports

Daily Weather History Graph

Daily Weather History Graph

Search for Another Location

Airport or City:

Trip Planner

Search our weather history database for the weather conditions in past years. The results will help you decide how hot, cold, wet, or windy it might be!

Date:

Astronomy

Mar. 28, 2014 Rise Set
Actual Time 6:17 AM CET 6:52 PM CET
Civil Twilight 5:47 AM CET 7:22 PM CET
Nautical Twilight 5:11 AM CET 7:57 PM CET
Astronomical Twilight 4:34 AM CET 8:34 PM CET
Moon 4:45 AM CET (3/28) 4:23 PM CET (3/28)
Length of Visible Light 13h 34m
Length of Day
12h 34m
Waning Crescent, 7% of the Moon is Illuminated
Mar 28
Waning Crescent
Mar 30
New
Apr 7
First Quarter
Apr 15
Full
Apr 22
Last Quarter

Hourly Weather History & Observations

Time (CET) Temp. Windchill Dew Point Humidity Pressure Visibility Wind Dir Wind Speed Gust Speed Precip Events Conditions
12:00 AM 11 °F - 9 °F 89%  in 0 mi SW 9.2 mph - - Fog Heavy Fog
12:55 AM 12.2 °F 2.9 °F 10.4 °F 92% 29.77 in 0.5 mi WSW 5.8 mph - N/A Fog Light Freezing Fog
1:00 AM 11 °F - 10 °F 93%  in 0 mi WSW 5.8 mph - - Fog Heavy Fog
1:55 AM 12.2 °F 0.7 °F 10.4 °F 92% 29.77 in - South 8.1 mph - N/A   Clear
2:00 AM 12 °F - 10 °F 85%  in 7 mi South 8.1 mph - - Fog Light Fog
2:55 AM 14.0 °F 3.9 °F 10.4 °F 86% 29.80 in - South 6.9 mph - N/A   Clear
3:00 AM 13 °F - 10 °F 81%  in 6 mi South 6.9 mph - -  
3:55 AM 14.0 °F 8.2 °F 8.6 °F 79% 29.80 in - West 3.5 mph - N/A   Clear
4:00 AM 14 °F - 10 °F 74%  in 6 mi West 3.5 mph - -   Partly Cloudy
4:55 AM 14.0 °F 2.0 °F 8.6 °F 79% 29.83 in - SSW 9.2 mph - N/A   Clear
5:00 AM 14 °F - 9 °F 73%  in 6 mi SSW 9.2 mph - -  
5:55 AM 14.0 °F 3.9 °F 6.8 °F 73% 29.83 in - SW 6.9 mph - N/A   Clear
6:00 AM 14 °F - 7 °F 63%  in 19 mi SW 6.9 mph - -  
6:55 AM 12.2 °F 0.7 °F 6.8 °F 79% 29.86 in - SW 8.1 mph - N/A   Clear
7:00 AM 13 °F - 6 °F 64%  in 19 mi SW 8.1 mph - -   Partly Cloudy
7:55 AM 15.8 °F 4.2 °F 8.6 °F 73% 29.86 in - SW 9.2 mph - N/A   Clear
8:00 AM 16 °F - 9 °F 65%  in 31 mi SW 9.2 mph - -  
8:55 AM 17.6 °F 10.7 °F 10.4 °F 73% 29.86 in - SSW 4.6 mph - N/A   Clear
9:00 AM 18 °F - 10 °F 60%  in 31 mi SSW 4.6 mph - -  
9:55 AM 19.4 °F 14.3 °F 10.4 °F 68% 29.89 in - Variable 3.5 mph - N/A   Clear
10:00 AM 20 °F - 10 °F 52%  in 31 mi 3.5 mph - -  
10:55 AM 19.4 °F 9.5 °F 8.6 °F 63% 29.92 in - SW 8.1 mph - N/A   Clear
11:00 AM 19 °F - 9 °F 51%  in 31 mi SW 8.1 mph - -  
11:55 AM 19.4 °F 10.4 °F 5.0 °F 54% 29.92 in - South 6.9 mph - N/A   Clear
12:00 PM 20 °F - 4 °F 36%  in 31 mi South 6.9 mph - -  
12:55 PM 21.2 °F 13.6 °F 12.2 °F 68% 29.95 in - WSW 5.8 mph - N/A   Clear
1:00 PM 21 °F - 11 °F 54%  in 31 mi WSW 5.8 mph - -  
1:55 PM 21.2 °F 12.6 °F 8.6 °F 58% 29.95 in - SSE 6.9 mph - N/A   Clear
2:00 PM 21 °F - 8 °F 43%  in 31 mi SSE 6.9 mph - -   Clear
2:55 PM 21.2 °F 13.6 °F 12.2 °F 68% 29.98 in 0.6 mi SSW 5.8 mph - N/A   Mist
3:00 PM 21 °F - 12 °F 56%  in 1 mi SSW 5.8 mph - -   Mist
3:55 PM 19.4 °F 10.4 °F 10.4 °F 68% 29.98 in 1.2 mi SSW 6.9 mph - N/A   Mist
4:00 PM 20 °F - 10 °F 53%  in 1 mi SSW 6.9 mph - -   Mist
4:55 PM 19.4 °F 11.5 °F 14.0 °F 80% 30.01 in 1.2 mi SW 5.8 mph - N/A   Mist
5:00 PM 20 °F - 13 °F 66%  in 1 mi SW 5.8 mph - -   Mist
5:55 PM 19.4 °F 10.4 °F 5.0 °F 54% 30.01 in 5.0 mi SSW 6.9 mph - N/A   Unknown
6:00 PM 19 °F - 6 °F 42%  in 5 mi SSW 6.9 mph - -   Mist
6:55 PM 17.6 °F 3.7 °F -9.4 °F 30% 30.04 in - SSW 13.8 mph - N/A   Clear
7:00 PM 18 °F - -10 °F 14%  in 12 mi SSW 13.8 mph - -  
7:55 PM 17.6 °F 4.3 °F -11.2 °F 27% 30.06 in - South 12.7 mph - N/A   Clear
8:00 PM 18 °F - -11 °F 13%  in 9 mi South 12.7 mph - -  
8:55 PM 17.6 °F 4.3 °F -13.0 °F 25% 30.06 in - South 12.7 mph - N/A   Clear
9:00 PM 17 °F - -13 °F 12%  in 6 mi South 12.7 mph - -  
9:55 PM 17.6 °F 1.7 °F -18.4 °F 19% 30.06 in - SSW 18.4 mph - N/A   Clear
10:00 PM 17 °F - -19 °F 7%  in 6 mi SSW 18.4 mph - -  
10:55 PM 15.8 °F 4.2 °F -11.2 °F 30% 30.09 in - SW 9.2 mph - N/A   Clear
11:00 PM 15 °F - -11 °F 16%  in 6 mi SW 9.2 mph - -  
11:55 PM 15.8 °F 2.7 °F -16.6 °F 23% 30.09 in - SSW 11.5 mph - N/A   Clear